Hourly Weather Kragli Bolshie

Today, 22 October, Thursday

Time Temperature Precipitation Wind Pressure Humidity
00:00 +9°C° 0.3 mm 3 mps 748 mmHg 91%
01:00 +8°C° 0.3 mm 4 mps 747 mmHg 89%
02:00 +8°C° 0 mm 4 mps 747 mmHg 86%
03:00 +8°C° 0.1 mm 4 mps 747 mmHg 86%
04:00 +8°C° 0.1 mm 4 mps 746 mmHg 85%
05:00 +8°C° 0.1 mm 5 mps 746 mmHg 85%
06:00 +8°C° 0 mm 5 mps 746 mmHg 85%
07:00 +8°C° 0 mm 5 mps 746 mmHg 85%
08:00 +7°C° 0 mm 6 mps 745 mmHg 86%
09:00 +9°C° 0 mm 6 mps 746 mmHg 81%
10:00 +10°C° 0 mm 6 mps 746 mmHg 77%
11:00 +12°C° 0 mm 7 mps 746 mmHg 73%
12:00 +14°C° 0 mm 7 mps 746 mmHg 70%
13:00 +15°C° 0 mm 7 mps 746 mmHg 68%
14:00 +16°C° 0 mm 7 mps 746 mmHg 66%
15:00 +15°C° 0 mm 7 mps 746 mmHg 69%
16:00 +15°C° 0 mm 6 mps 746 mmHg 72%
17:00 +14°C° 0 mm 5 mps 746 mmHg 76%
18:00 +13°C° 0 mm 5 mps 746 mmHg 79%
19:00 +13°C° 0 mm 5 mps 747 mmHg 81%
20:00 +12°C° 0 mm 5 mps 747 mmHg 84%
21:00 +12°C° 0 mm 5 mps 747 mmHg 86%
22:00 +11°C° 0 mm 4 mps 747 mmHg 89%
23:00 +11°C° 0 mm 4 mps 747 mmHg 91%

Tomorrow, 23 October, Friday

Time Temperature Precipitation Wind Pressure Humidity
00:00 +11°C° 0 mm 4 mps 747 mmHg 92%
01:00 +11°C° 0 mm 3 mps 748 mmHg 93%
02:00 +10°C° 0 mm 3 mps 748 mmHg 94%
03:00 +10°C° 0 mm 3 mps 747 mmHg 94%
04:00 +10°C° 0 mm 3 mps 747 mmHg 94%
05:00 +10°C° 0 mm 3 mps 747 mmHg 94%
06:00 +11°C° 0 mm 4 mps 746 mmHg 92%
07:00 +11°C° 0 mm 4 mps 746 mmHg 90%
08:00 +10°C° 0 mm 5 mps 746 mmHg 89%
09:00 +12°C° 0 mm 5 mps 745 mmHg 86%
10:00 +12°C° 0 mm 5 mps 745 mmHg 84%
11:00 +13°C° 0 mm 5 mps 745 mmHg 81%
12:00 +13°C° 0.3 mm 6 mps 745 mmHg 81%
13:00 +14°C° 0.3 mm 6 mps 745 mmHg 80%
14:00 +14°C° 0.3 mm 6 mps 745 mmHg 80%
15:00 +14°C° 0 mm 5 mps 745 mmHg 82%
16:00 +14°C° 0 mm 4 mps 745 mmHg 84%
17:00 +13°C° 0 mm 4 mps 745 mmHg 86%
18:00 +13°C° 0 mm 3 mps 745 mmHg 88%
19:00 +12°C° 0 mm 3 mps 745 mmHg 91%
20:00 +11°C° 0 mm 3 mps 745 mmHg 93%
21:00 +12°C° 0 mm 2 mps 746 mmHg 93%
22:00 +10°C° 0 mm 2 mps 746 mmHg 93%
23:00 +11°C° 0 mm 1 mps 746 mmHg 93%

Day after tomorrow, 24 October, Saturday

Time Temperature Precipitation Wind Pressure Humidity
00:00 +11°C° 0 mm 1 mps 746 mmHg 93%
01:00 +10°C° 0 mm 1 mps 746 mmHg 92%
02:00 +10°C° 0 mm 1 mps 746 mmHg 92%
03:00 +10°C° 0 mm 1 mps 746 mmHg 92%
04:00 +10°C° 0 mm 1 mps 746 mmHg 92%
05:00 +10°C° 0 mm 1 mps 746 mmHg 92%
06:00 +10°C° 0 mm 1 mps 745 mmHg 92%
07:00 +11°C° 0 mm 1 mps 745 mmHg 92%
08:00 +11°C° 0 mm 1 mps 745 mmHg 92%
09:00 +11°C° 0.5 mm 1 mps 745 mmHg 93%
10:00 +11°C° 0.5 mm 1 mps 745 mmHg 94%
11:00 +12°C° 0.5 mm 1 mps 745 mmHg 95%
12:00 +12°C° 1.2 mm 1 mps 745 mmHg 95%
13:00 +11°C° 1.2 mm 1 mps 745 mmHg 96%
14:00 +11°C° 1.2 mm 1 mps 745 mmHg 96%
15:00 +11°C° 0.6 mm 1 mps 745 mmHg 96%
16:00 +11°C° 0.6 mm 1 mps 745 mmHg 95%
17:00 +10°C° 0.6 mm 1 mps 745 mmHg 95%
18:00 +10°C° 0 mm 1 mps 745 mmHg 94%
19:00 +9°C° 0 mm 2 mps 746 mmHg 94%
20:00 +9°C° 0 mm 3 mps 746 mmHg 94%
21:00 +9°C° 0 mm 3 mps 747 mmHg 95%
22:00 +9°C° 0 mm 3 mps 747 mmHg 95%
23:00 +9°C° 0 mm 3 mps 747 mmHg 96%

, 25 October, Sunday

Time Temperature Precipitation Wind Pressure Humidity
00:00 +8°C° 0 mm 3 mps 748 mmHg 96%
01:00 +8°C° 0 mm 3 mps 748 mmHg 96%
02:00 +8°C° 0 mm 3 mps 748 mmHg 96%
03:00 +8°C° 0 mm 3 mps 749 mmHg 96%
04:00 +7°C° 0 mm 3 mps 749 mmHg 96%
05:00 +7°C° 0 mm 2 mps 749 mmHg 96%
06:00 +7°C° 0 mm 2 mps 749 mmHg 96%
07:00 +7°C° 0 mm 2 mps 750 mmHg 96%
08:00 +7°C° 0 mm 2 mps 750 mmHg 96%
09:00 +8°C° 0 mm 2 mps 750 mmHg 90%
10:00 +9°C° 0 mm 2 mps 751 mmHg 85%
11:00 +12°C° 0 mm 2 mps 751 mmHg 80%
12:00 +12°C° 0 mm 2 mps 751 mmHg 77%
13:00 +12°C° 0 mm 3 mps 751 mmHg 73%
14:00 +13°C° 0 mm 3 mps 751 mmHg 70%
15:00 +12°C° 0 mm 3 mps 751 mmHg 75%
16:00 +12°C° 0 mm 2 mps 751 mmHg 79%
17:00 +10°C° 0 mm 2 mps 751 mmHg 83%
18:00 +9°C° 0 mm 2 mps 751 mmHg 85%
19:00 +9°C° 0 mm 2 mps 751 mmHg 86%
20:00 +8°C° 0 mm 2 mps 752 mmHg 87%
21:00 +8°C° 0 mm 2 mps 752 mmHg 88%
22:00 +8°C° 0 mm 2 mps 752 mmHg 89%
23:00 +7°C° 0 mm 2 mps 752 mmHg 90%

25 October, Sunday

Time Temperature Precipitation Wind Pressure Humidity
00:00 +8°C° 0 mm 3 mps 748 mmHg 96%
01:00 +8°C° 0 mm 3 mps 748 mmHg 96%
02:00 +8°C° 0 mm 3 mps 748 mmHg 96%
03:00 +8°C° 0 mm 3 mps 749 mmHg 96%
04:00 +7°C° 0 mm 3 mps 749 mmHg 96%
05:00 +7°C° 0 mm 2 mps 749 mmHg 96%
06:00 +7°C° 0 mm 2 mps 749 mmHg 96%
07:00 +7°C° 0 mm 2 mps 750 mmHg 96%
08:00 +7°C° 0 mm 2 mps 750 mmHg 96%
09:00 +8°C° 0 mm 2 mps 750 mmHg 90%
10:00 +9°C° 0 mm 2 mps 751 mmHg 85%
11:00 +12°C° 0 mm 2 mps 751 mmHg 80%
12:00 +12°C° 0 mm 2 mps 751 mmHg 77%
13:00 +12°C° 0 mm 3 mps 751 mmHg 73%
14:00 +13°C° 0 mm 3 mps 751 mmHg 70%
15:00 +12°C° 0 mm 3 mps 751 mmHg 75%
16:00 +12°C° 0 mm 2 mps 751 mmHg 79%
17:00 +10°C° 0 mm 2 mps 751 mmHg 83%
18:00 +9°C° 0 mm 2 mps 751 mmHg 85%
19:00 +9°C° 0 mm 2 mps 751 mmHg 86%
20:00 +8°C° 0 mm 2 mps 752 mmHg 87%
21:00 +8°C° 0 mm 2 mps 752 mmHg 88%
22:00 +8°C° 0 mm 2 mps 752 mmHg 89%
23:00 +7°C° 0 mm 2 mps 752 mmHg 90%

26 October, Monday

Time Temperature Precipitation Wind Pressure Humidity
00:00 +7°C° 0 mm 2 mps 752 mmHg 91%
01:00 +7°C° 0 mm 3 mps 752 mmHg 92%
02:00 +7°C° 0 mm 3 mps 752 mmHg 94%
03:00 +5°C° 0 mm 3 mps 752 mmHg 94%
04:00 +5°C° 0 mm 3 mps 752 mmHg 95%
05:00 +5°C° 0 mm 3 mps 752 mmHg 95%
06:00 +5°C° 0 mm 4 mps 752 mmHg 95%
07:00 +5°C° 0 mm 4 mps 752 mmHg 95%
08:00 +5°C° 0 mm 4 mps 752 mmHg 95%
09:00 +7°C° 0 mm 5 mps 752 mmHg 91%
10:00 +8°C° 0 mm 5 mps 751 mmHg 86%
11:00 +9°C° 0 mm 5 mps 751 mmHg 82%
12:00 +10°C° 0 mm 5 mps 751 mmHg 81%
13:00 +10°C° 0 mm 5 mps 751 mmHg 80%
14:00 +11°C° 0 mm 6 mps 751 mmHg 79%
15:00 +10°C° 0 mm 5 mps 750 mmHg 80%
16:00 +10°C° 0 mm 5 mps 750 mmHg 81%
17:00 +10°C° 0 mm 5 mps 750 mmHg 83%
18:00 +9°C° 0 mm 5 mps 749 mmHg 84%
19:00 +9°C° 0 mm 5 mps 749 mmHg 85%
20:00 +8°C° 0 mm 6 mps 749 mmHg 85%
21:00 +9°C° 0 mm 6 mps 749 mmHg 85%
22:00 +9°C° 0 mm 6 mps 749 mmHg 85%
23:00 +9°C° 0 mm 6 mps 749 mmHg 84%

27 October, Tuesday

Time Temperature Precipitation Wind Pressure Humidity
00:00 +9°C° 0 mm 5 mps 749 mmHg 86%
01:00 +9°C° 0 mm 5 mps 748 mmHg 87%
02:00 +9°C° 0 mm 5 mps 748 mmHg 89%
03:00 +9°C° 0 mm 5 mps 748 mmHg 89%
04:00 +10°C° 0 mm 5 mps 748 mmHg 90%
05:00 +10°C° 0 mm 5 mps 748 mmHg 90%
06:00 +10°C° 0 mm 5 mps 748 mmHg 90%
07:00 +10°C° 0 mm 5 mps 748 mmHg 89%
08:00 +10°C° 0 mm 5 mps 748 mmHg 89%
09:00 +12°C° 0 mm 5 mps 748 mmHg 86%
10:00 +13°C° 0 mm 5 mps 748 mmHg 84%
11:00 +13°C° 0 mm 5 mps 748 mmHg 81%
12:00 +14°C° 0 mm 5 mps 748 mmHg 80%
13:00 +14°C° 0 mm 5 mps 748 mmHg 78%
14:00 +15°C° 0 mm 5 mps 748 mmHg 77%
15:00 +14°C° 0 mm 5 mps 748 mmHg 81%
16:00 +13°C° 0 mm 4 mps 748 mmHg 85%
17:00 +12°C° 0 mm 4 mps 748 mmHg 90%
18:00 +12°C° 0 mm 4 mps 748 mmHg 91%
19:00 +12°C° 0 mm 4 mps 748 mmHg 92%
20:00 +12°C° 0 mm 4 mps 749 mmHg 93%
21:00 +11°C° 0 mm 4 mps 749 mmHg 93%
22:00 +11°C° 0 mm 4 mps 749 mmHg 94%
23:00 +11°C° 0 mm 3 mps 749 mmHg 94%
Show more